Location: Berrydale Trailer Park
(33.7731°N, 117.9045°W)
Time: 18:29:20
(UTC+00:00)

Daily predictions for brighter satellites

Satellite Brightness Start Highest point End
(mag) Time Altitude Azimuth Time Altitude Azimuth Time Altitude Azimuth
Cosmos 2228 3.5 12:03:19 10° N 12:07:31 57° E 12:11:39 10° SSE
CENTAUR R/B 3.1 12:07:44 21° NW 12:13:47 71° WSW 12:22:26 10° SSE
Milstar 3 3.4 12:10:45 30° SW 12:13:53 47° SSE 12:20:18 10° E
MSX 3.7 12:10:44 10° N 12:16:23 63° WNW 12:20:12 21° SSW
CZ-4B R/B 4.3 12:13:34 10° NNE 12:17:41 65° E 12:21:59 10° S
Okean 1-7 Rocket 3.4 12:15:44 23° S 12:18:26 83° W 12:22:57 10° N
In-Cosmos 22 4.0 12:14:05 10° S 12:19:25 85° W 12:24:55 10° N
BREEZE-M DEB (TANK) 3.8 12:18:14 43° W 12:19:43 55° NW 12:23:09 10° NE
Cosmos 1726 Rocket 3.4 12:19:47 10° N 12:24:07 87° E 12:28:26 10° S
Cosmos 1674 3.1 12:22:50 10° S 12:26:29 60° E 12:30:09 10° NNE
Cosmos 1741 Rocket 4.0 12:22:40 10° SSW 12:27:59 89° ESE 12:33:20 10° NNE
Cosmos 2237 Rocket 4.2 12:31:15 13° NNW 12:31:15 13° NNW 12:32:21 10° NNW
Meteor 2-17 Rocket 4.4 12:31:18 10° S 12:37:22 85° E 12:43:27 10° N
Meteor 1-31 Rocket 2.6 12:36:27 10° N 12:40:11 60° WNW 12:43:55 10° SSW
Cosmos 1953 4.3 12:43:24 14° SSW 12:43:24 14° SSW 12:44:10 10° SSW
Cosmos 2369 Rocket 4.1 12:42:47 10° N 12:47:34 28° ENE 12:52:19 10° ESE
IDEFIX/ARIANE 42P 4.2 12:46:30 10° NNW 12:48:23 16° NW 12:48:23 16° NW
SL-8 R/B 4.4 12:48:21 27° WNW 12:50:06 36° NNW 12:54:33 10° NE
Meteor 2-5 Rocket 3.7 12:44:42 10° SSW 12:50:29 74° W 12:56:24 10° N
Cosmos 2058 Rocket 3.0 12:50:32 10° NNW 12:54:55 63° W 12:59:20 10° S
Cosmos 1484 Rocket 2.8 12:51:23 10° NNE 12:55:13 82° E 12:59:08 10° S
H-2A R/B 4.1 12:56:26 10° NNW 12:58:39 18° NW 12:58:39 18° NW
Okean O Rocket 2.8 12:56:13 10° NNE 13:00:26 46° E 13:04:36 10° S
Cosmos 44 Rocket 3.1 12:56:27 10° NNW 13:01:07 69° WSW 13:05:45 10° SSE
CZ-4B R/B 3.4 12:58:50 10° N 13:02:14 31° WNW 13:05:31 10° SW
SKYMED 2 4.1 12:58:22 10° SSE 13:02:38 61° ENE 13:06:55 10° N
CZ-4B R/B 4.1 12:58:05 10° NNE 13:03:13 50° E 13:08:22 10° S
GPS 2-04 Rocket1 4.2 13:00:23 10° SW 13:04:15 35° SSE 13:08:05 10° E
Cosmos 2218 Rocket 4.0 12:58:05 10° S 13:04:28 87° W 13:10:49 10° N
Cosmos 1943 Rocket 3.3 12:59:10 10° N 13:04:38 47° ENE 13:10:02 10° SE
PAYLOAD B 4.3 13:06:02 10° NNE 13:11:36 85° ESE 13:17:06 10° SSW
Meteor PRIRODA 4.2 13:08:20 10° N 13:11:46 35° WNW 13:15:10 10° SW
FENGYUN 3A 4.2 13:06:47 10° NNE 13:12:12 65° E 13:17:35 10° S
ISS -3.4 13:16:51 10° SW 13:20:11 67° SE 13:23:31 10° NE
USA 116 4.2 13:16:34 10° SSE 13:20:15 56° ENE 13:23:34 10° N
DELTA 2 R/B (1) 3.6 13:18:36 10° WSW 13:24:10 85° NNW 13:29:44 10° ENE
Cosmos 1603 3.9 13:19:42 10° SW 13:25:08 51° WNW 13:30:39 10° N
SL-16 R/B 3.8 13:23:06 11° W 13:25:37 14° NW 13:28:34 10° NNW
SL-14 R/B 3.2 13:22:06 10° SSW 13:26:00 69° W 13:29:54 10° N
Cosmos 1727 Rocket 4.3 13:23:35 10° N 13:29:50 76° E 13:36:08 10° S
Chandra Rocket (1) 4.4 13:23:05 10° SW 13:33:06 31° S 13:36:57 10° ESE
Cosmos 1726 3.6 13:31:02 10° NW 13:33:26 17° W 13:35:50 10° SW
USA 234 3.3 13:27:10 10° SE 13:33:42 74° SW 13:40:15 10° NW
CZ-2C R/B 4.0 13:30:56 10° NNW 13:34:00 16° WNW 13:37:04 10° WSW
GP-B 4.3 13:31:01 10° SW 13:34:22 21° W 13:37:45 10° NW
Helios 1A Rocket 3.1 13:32:11 10° N 13:36:14 51° WNW 13:40:14 10° SSW
Meteor 1-24 Rocket 4.2 13:31:00 10° SW 13:36:21 40° WNW 13:41:53 10° N
Cosmos 468 Rocket 4.2 13:32:51 10° NNW 13:37:46 48° WSW 13:42:39 10° S
COBE Rocket 4.3 13:33:30 10° S 13:38:18 44° W 13:43:13 10° NNW
Cosmos 1626 Rocket 4.4 13:36:32 10° SW 13:40:12 27° WNW 13:43:55 10° NNW
Cosmos 1271 Rocket 4.0 13:36:58 10° SSE 13:40:35 46° E 13:44:17 10° NNE
Milstar 3 Cent rocket 2.6 13:37:15 10° WSW 13:42:34 47° S 13:47:01 10° ESE
